Sigfox identifier Datetime Temperature Humidity SNR
003A5505 2019-04-23 14:40:14 15.7 33 20.7
003A5505 2019-04-23 14:05:29 15.7 33 20.4
003A5505 2019-04-23 13:30:45 15.6 33 20
003A5505 2019-04-23 12:56:00 15.5 33 19.6
003A5505 2019-04-23 12:21:16 15.5 32 19.5
003A5505 2019-04-23 11:46:32 15.5 32 18.9
003A5505 2019-04-23 11:11:49 15.5 32 18.6
003A5505 2019-04-23 10:37:05 15.5 32 18.1
003A5505 2019-04-23 10:02:22 15.5 32 17.1
003A5505 2019-04-23 09:27:36 15.5 32 15.8
003A5505 2019-04-23 08:52:51 15.5 32 14.8
003A5505 2019-04-23 08:18:07 15.5 32 12.3
003A5505 2019-04-23 05:59:10 15.5 32 12.5
003A5505 2019-04-23 05:24:30 15.5 32 12.7
003A5505 2019-04-23 04:49:45 15.5 32 12.9
003A5505 2019-04-23 04:15:01 15.5 32 13.1
003A5505 2019-04-23 03:40:12 15.5 32 13.5
003A5505 2019-04-23 03:05:26 15.5 32 13.7
003A5505 2019-04-23 02:30:43 15.5 32 13.7
003A5505 2019-04-23 01:55:56 15.5 32 13.7
003A5505 2019-04-23 01:21:10 15.5 32 13.7
003A5505 2019-04-23 00:46:28 15.5 32 13.8
003A5505 2019-04-23 00:11:42 15.5 32 13.6
003A5505 2019-04-22 23:36:57 15.5 32 13.7
003A5505 2019-04-22 23:02:11 15.6 32 13.6
003A5505 2019-04-22 22:27:25 15.6 32 13.4
003A5505 2019-04-22 21:52:41 15.7 32 13.3
003A5505 2019-04-22 21:17:55 15.6 32 13.1
003A5505 2019-04-22 20:43:09 15.7 32 12.9
003A5505 2019-04-22 20:08:23 15.7 32 12.7
003A5505 2019-04-22 19:33:36 15.7 32 12.4
003A5505 2019-04-22 18:58:50 15.7 32 12.2
003A5505 2019-04-22 18:24:06 15.6 32 12.2
003A5505 2019-04-22 17:49:19 15.6 32 12.1
003A5505 2019-04-22 17:14:35 15.6 32 12.1
003A5505 2019-04-22 16:39:48 15.5 32 11.9
003A5505 2019-04-22 16:05:04 15.5 32 11.7
003A5505 2019-04-22 15:30:17 15.5 32 11.6
003A5505 2019-04-22 14:55:31 15.6 31 11.5
003A5505 2019-04-22 14:19:31 15.5 32 11.4
003A5505 2019-04-22 13:44:49 15.5 31 11.1
003A5505 2019-04-22 13:10:02 15.5 31 10.4
003A5505 2019-04-22 12:35:16 15.5 31 10.2
003A5505 2019-04-22 11:25:45 15.5 31 10.2
003A5505 2019-04-22 10:51:03 15.5 31 10.3
003A5505 2019-04-22 10:16:19 15.4 31 10.4
003A5505 2019-04-22 09:41:29 15.3 31 10.6
003A5505 2019-04-22 07:22:30 15.4 31 10.7
003A5505 2019-04-22 06:47:45 15.5 31 10.4
003A5505 2019-04-22 06:13:02 15.4 31 10.4
003A5505 2019-04-22 05:38:15 15.5 31 10.4
003A5505 2019-04-22 04:28:44 15.4 31 10.6
003A5505 2019-04-22 02:09:48 15.3 31 10.7
003A5505 2019-04-22 01:00:19 15.3 31 10.8
003A5505 2019-04-22 00:25:36 15.3 31 10.9
003A5505 2019-04-21 23:50:50 15.3 31 11.3
003A5505 2019-04-21 23:16:06 15.3 31 11.6
003A5505 2019-04-21 22:41:20 15.3 31 11.5
003A5505 2019-04-21 22:06:35 15.3 31 11.4
003A5505 2019-04-21 21:31:51 15.3 31 11.5
003A5505 2019-04-21 20:57:06 15.3 31 11.5
003A5505 2019-04-21 20:22:20 15.3 31 11.4
003A5505 2019-04-21 19:47:35 15.3 31 11.2
003A5505 2019-04-21 19:12:50 15.3 31 17.2
003A5505 2019-04-21 18:38:06 15.3 31 17.2
003A5505 2019-04-21 18:03:23 15.3 30 17.1
003A5505 2019-04-21 17:28:37 15.3 30 17.1
003A5505 2019-04-21 16:53:52 15.3 30 17.1
003A5505 2019-04-21 16:19:08 15.3 30 17.1
003A5505 2019-04-21 15:44:23 15.3 30 17.1
003A5505 2019-04-21 15:09:39 15.3 30 17.1
003A5505 2019-04-21 14:34:55 15.3 30 17.1
003A5505 2019-04-21 14:00:11 15.3 30 17
003A5505 2019-04-21 13:25:26 15.3 30 17.1
003A5505 2019-04-21 12:50:42 15.3 30 17.1
003A5505 2019-04-21 12:16:01 15.3 30 17.2
003A5505 2019-04-21 11:41:11 15.3 30 17.1
003A5505 2019-04-21 11:06:28 15.3 30 17.1
003A5505 2019-04-21 10:31:41 15.3 30 17.2
003A5505 2019-04-21 09:56:56 15.4 30 17.2
003A5505 2019-04-21 08:12:44 15.5 30 17.1
003A5505 2019-04-21 07:38:00 15.5 30 17
003A5505 2019-04-21 06:28:32 15.5 30 17.1
003A5505 2019-04-21 05:53:49 15.5 30 17.1
003A5505 2019-04-21 05:19:06 15.5 30 17
003A5505 2019-04-21 04:44:21 15.5 30 17.1
003A5505 2019-04-21 04:09:36 15.4 30 17.1
003A5505 2019-04-21 03:34:51 15.5 30 17.1
003A5505 2019-04-21 02:25:23 15.5 30 10.9
003A5505 2019-04-21 01:50:41 15.5 30 11.1
003A5505 2019-04-21 00:41:11 15.5 30 11.2
003A5505 2019-04-21 00:06:29 15.4 30 11.3
003A5505 2019-04-20 23:31:44 15.5 30 11.4
003A5505 2019-04-20 22:57:01 15.5 30 11.4
003A5505 2019-04-20 22:22:20 15.5 29 11.3
003A5505 2019-04-20 21:47:34 15.5 30 11.2
003A5505 2019-04-20 21:12:50 15.5 30 11.1
003A5505 2019-04-20 20:38:06 15.5 29 11.1
003A5505 2019-04-20 20:03:20 15.5 29 10.7
003A5505 2019-04-20 19:28:38 15.5 29 10.8
003A5505 2019-04-20 18:53:51 15.5 29 10.7
003A5505 2019-04-20 18:19:05 15.5 29 10.8
003A5505 2019-04-20 17:44:20 15.5 29 10.7
003A5505 2019-04-20 17:09:37 15.5 29 10.7
003A5505 2019-04-20 16:34:56 15.5 29 10.9
003A5505 2019-04-20 16:00:11 15.5 29 11.1
003A5505 2019-04-20 15:25:25 15.5 29 11.2
003A5505 2019-04-20 14:50:41 15.5 29 11
003A5505 2019-04-20 14:15:56 15.5 29 11.2
003A5505 2019-04-20 13:41:12 15.5 29 11.5
003A5505 2019-04-20 13:06:28 15.5 29 11.7
003A5505 2019-04-20 12:31:43 15.5 29 11.6
003A5505 2019-04-20 11:56:59 15.5 29 11.8
003A5505 2019-04-20 11:22:14 15.5 29 11.7
003A5505 2019-04-20 10:47:29 15.5 29 11.6
003A5505 2019-04-20 10:12:43 15.5 29 11.5
003A5505 2019-04-20 09:37:59 15.5 29 11.4
003A5505 2019-04-20 09:03:14 15.5 29 11.4
003A5505 2019-04-20 08:28:31 15.6 29 11.4
003A5505 2019-04-20 07:53:48 15.6 29 11.5
003A5505 2019-04-20 06:44:19 15.6 29 11.4
003A5505 2019-04-20 06:09:35 15.7 29 11.4
003A5505 2019-04-20 05:34:51 15.7 29 11.4
003A5505 2019-04-20 05:00:08 15.7 29 11.4
003A5505 2019-04-20 04:25:23 15.7 28 11.5
003A5505 2019-04-20 03:50:39 15.7 28 11.4
003A5505 2019-04-20 03:15:55 15.7 28 11.3
003A5505 2019-04-20 02:41:12 15.7 28 11.3
003A5505 2019-04-20 02:06:29 15.8 28 11.2
003A5505 2019-04-20 01:31:45 15.9 28 10.9
003A5505 2019-04-20 00:57:00 15.9 28 10.8
003A5505 2019-04-20 00:22:16 15.9 28 10.7
003A5505 2019-04-19 23:47:32 15.9 28 10.6
003A5505 2019-04-19 23:12:49 15.9 28 10.4
003A5505 2019-04-19 22:38:06 15.9 28 10.1
003A5505 2019-04-19 22:03:22 15.9 28 9.8
003A5505 2019-04-19 21:28:39 15.9 28 9.6
003A5505 2019-04-19 20:53:55 15.9 28 9.3
003A5505 2019-04-19 20:19:12 15.9 28 9.3
003A5505 2019-04-19 19:44:29 15.9 28 9.2
003A5505 2019-04-19 19:09:45 15.9 28 9.5
003A5505 2019-04-19 18:35:01 15.9 28 9.7
003A5505 2019-04-19 18:00:19 15.9 28 9.9
003A5505 2019-04-19 17:25:33 15.9 28 10.1
003A5505 2019-04-19 16:50:48 15.9 28 10.2
003A5505 2019-04-19 16:16:04 15.9 28 10.5
003A5505 2019-04-19 15:06:36 15.8 28 10.9
003A5505 2019-04-19 14:31:55 15.8 28 11.2
003A5505 2019-04-19 13:57:05 15.8 28 11.3
003A5505 2019-04-19 12:12:50 15.7 28 11.2
003A5505 2019-04-19 11:03:25 15.7 27 11.3
003A5505 2019-04-19 09:53:54 15.8 27 13.3
003A5505 2019-04-19 09:19:09 15.8 27 14.2
003A5505 2019-04-19 08:44:24 15.8 27 15.2
003A5505 2019-04-19 07:34:55 15.9 27 16.1
003A5505 2019-04-19 07:00:11 15.9 27 16.6
003A5505 2019-04-19 06:25:27 15.9 27 17.4
003A5505 2019-04-19 05:50:42 15.9 27 18.2
003A5505 2019-04-19 05:15:59 15.9 27 18.9
003A5505 2019-04-19 04:41:12 15.9 27 19.5
003A5505 2019-04-19 04:06:27 16.1 27 19.9
003A5505 2019-04-19 03:31:47 16.1 27 20.4
003A5505 2019-04-19 02:57:02 16.1 27 21.7
003A5505 2019-04-19 02:22:17 16.1 27 21.9
003A5505 2019-04-19 01:47:34 16.1 27 22.2
003A5505 2019-04-19 01:12:51 16.2 27 22.3
003A5505 2019-04-19 00:38:08 16.3 27 22.5
003A5505 2019-04-19 00:03:25 16.3 27 22.7
003A5505 2019-04-18 23:28:41 16.3 27 22.8
003A5505 2019-04-18 22:54:03 16.3 27 22.9
003A5505 2019-04-18 22:19:16 16.4 27 23
003A5505 2019-04-18 21:44:33 16.3 27 23
003A5505 2019-04-18 21:09:51 16.4 27 23.1
003A5505 2019-04-18 20:35:05 16.4 27 23.1
003A5505 2019-04-18 20:00:23 16.4 27 23.2
003A5505 2019-04-18 19:25:38 16.3 27 23.3
003A5505 2019-04-18 18:50:56 16.3 27 23.2
003A5505 2019-04-18 18:16:13 16.3 27 23.2
003A5505 2019-04-18 17:41:30 16.3 27 23.1
003A5505 2019-04-18 17:06:48 16.3 27 23
003A5505 2019-04-18 16:32:05 16.3 27 23
003A5505 2019-04-18 15:57:23 16.3 26 22.9
003A5505 2019-04-18 15:22:41 16.3 26 22.7
003A5505 2019-04-18 14:47:57 16.2 26 22.5
003A5505 2019-04-18 14:13:13 16.1 26 22.3
003A5505 2019-04-18 13:38:29 16.1 26 21.9
003A5505 2019-04-18 13:03:46 16.1 26 20.7
003A5505 2019-04-18 11:54:18 16.1 26 20.6
003A5505 2019-04-18 11:19:33 16.1 26 20.4
003A5505 2019-04-18 10:44:48 16.1 26 20.2
003A5505 2019-04-18 10:10:03 16.1 26 20
003A5505 2019-04-18 09:35:17 16.1 25 19.7
003A5505 2019-04-18 09:00:32 16.1 25 19.6
003A5505 2019-04-18 08:25:47 16.3 25 19.4
003A5505 2019-04-18 07:51:03 16.3 25 19.3
003A5505 2019-04-18 07:16:17 16.3 25 19.4
003A5505 2019-04-18 06:41:31 16.3 25 19.6
003A5505 2019-04-18 06:06:46 16.3 25 19.6
003A5505 2019-04-18 05:32:00 16.3 25 19.9
003A5505 2019-04-18 04:57:15 16.3 25 19.9
003A5505 2019-04-18 04:22:29 16.3 25 19.9
003A5505 2019-04-18 03:47:42 16.3 25 19.7
003A5505 2019-04-18 03:12:57 16.4 25 19.6
003A5505 2019-04-18 02:38:14 16.5 24 19.4
003A5505 2019-04-18 02:03:30 16.5 24 19.4
003A5505 2019-04-18 01:28:46 16.5 24 19.3
003A5505 2019-04-18 00:54:02 16.7 24 19.2
003A5505 2019-04-18 00:19:18 16.8 24 19.1
003A5505 2019-04-17 23:44:33 16.8 24 20.7
003A5505 2019-04-17 23:09:48 16.8 24 20.7
003A5505 2019-04-17 22:35:04 16.8 24 20.8
003A5505 2019-04-17 22:00:20 16.8 24 20.8
003A5505 2019-04-17 21:25:37 16.8 24 20.7
003A5505 2019-04-17 20:50:53 16.8 24 20.6
003A5505 2019-04-17 20:16:09 17 24 20.7
003A5505 2019-04-17 19:06:50 16.8 24 20.8
003A5505 2019-04-17 18:32:06 16.9 24 20.8
003A5505 2019-04-17 17:57:22 17 24 20.8
003A5505 2019-04-17 17:22:38 17 24 20.8
003A5505 2019-04-17 16:47:54 17 24 20.9
003A5505 2019-04-17 16:13:10 17 23 20.9
003A5505 2019-04-17 15:38:25 17.1 23 20.8
003A5505 2019-04-17 15:03:40 17.2 23 20.8
003A5505 2019-04-17 14:28:56 17.2 23 20.5
003A5505 2019-04-17 13:54:11 17.3 23 20.6
003A5505 2019-04-17 12:44:43 17.4 23 20.5
003A5505 2019-04-17 12:09:58 17.4 23 20.5
003A5505 2019-04-17 11:35:13 17.4 23 20.4
003A5505 2019-04-17 11:00:28 17.4 23 20.4
003A5505 2019-04-17 10:25:44 17.5 23 20.4
003A5505 2019-04-17 09:50:59 17.6 22 20.4
003A5505 2019-04-17 09:16:16 17.6 22 20.4
003A5505 2019-04-17 08:41:31 17.8 22 20.4
003A5505 2019-04-17 08:06:46 17.9 22 18.5
003A5505 2019-04-17 07:32:03 17.9 22 18.6
003A5505 2019-04-17 06:57:17 18 22 18.4
003A5505 2019-04-17 06:22:34 18 22 18.6
003A5505 2019-04-17 05:47:50 18.2 22 18.5
003A5505 2019-04-17 05:13:07 18.3 22 18.5
003A5505 2019-04-17 04:38:21 18.3 22 18.4
003A5505 2019-04-17 04:03:37 18.4 22 18.2
003A5505 2019-04-17 03:28:53 18.5 22 18
003A5505 2019-04-17 02:54:07 18.5 22 17.8
003A5505 2019-04-17 02:19:22 18.5 22 17.5
003A5505 2019-04-17 01:44:38 18.7 22 17.1
003A5505 2019-04-17 01:09:54 18.7 22 16.8
003A5505 2019-04-17 00:35:10 18.7 22 16.5
003A5505 2019-04-17 00:00:26 18.9 21 16.2
003A5505 2019-04-16 23:25:41 18.9 21 16
003A5505 2019-04-16 22:50:57 19 21 15.5
003A5505 2019-04-16 22:16:13 19.1 21 15.5
003A5505 2019-04-16 21:41:29 19.3 21 15.5
003A5505 2019-04-16 21:06:45 19.4 21 15.5
003A5505 2019-04-16 20:31:59 19.5 21 15.3
003A5505 2019-04-16 19:57:15 19.5 21 15.2
003A5505 2019-04-16 19:22:30 19.6 21 15.1
003A5505 2019-04-16 18:47:47 19.8 21 15
003A5505 2019-04-16 18:13:03 19.8 21 15
003A5505 2019-04-16 17:38:21 20 21 14.8
003A5505 2019-04-16 15:54:07 20.4 21 13.9
003A5505 2019-04-16 15:19:22 20.6 21 13.2
003A5505 2019-04-16 14:44:37 20.8 22 12
003A5505 2019-04-16 13:00:26 20.8 22 11.9
003A5505 2019-04-16 12:25:39 20.9 22 11.1
003A5505 2019-04-16 11:50:57 20.9 22 10.9
003A5505 2019-04-16 11:16:09 20.7 22 10.6
003A5505 2019-04-16 10:41:25 20.6 22 10.7
003A5505 2019-04-16 09:31:58 20.7 22 10.8
003A5505 2019-04-16 08:57:15 20.7 22 10.9
003A5505 2019-04-16 08:22:26 20.7 22 10.9
003A5505 2019-04-16 07:47:42 20.7 22 10.9
003A5505 2019-04-16 07:12:57 20.8 22 11.2
003A5505 2019-04-16 06:03:39 20.7 22 11.7
003A5505 2019-04-16 05:28:49 20.7 21 12.6
003A5505 2019-04-16 04:54:04 20.8 21 13.6
003A5505 2019-04-16 04:19:19 20.9 21 14.9
003A5505 2019-04-16 03:44:34 20.8 21 15.5
003A5505 2019-04-16 03:09:50 20.8 21 18.8
003A5505 2019-04-16 02:00:26 20.8 21 19.1
003A5505 2019-04-16 01:25:38 20.8 21 19.5
003A5505 2019-04-16 00:50:54 20.8 21 19.8
003A5505 2019-04-16 00:16:09 20.9 21 20
003A5505 2019-04-15 23:41:25 20.8 20 20.2
003A5505 2019-04-15 23:06:41 20.9 20 21.6
003A5505 2019-04-15 22:31:57 20.9 20 21.8
003A5505 2019-04-15 21:57:14 20.9 20 22
003A5505 2019-04-15 21:22:30 21 20 22.1
003A5505 2019-04-15 20:47:46 21 20 22.2
003A5505 2019-04-15 20:12:58 21 20 22.3
003A5505 2019-04-15 19:03:30 21 19 22.5
003A5505 2019-04-15 18:28:43 21.1 19 22.6
003A5505 2019-04-15 17:53:59 21.2 19 22.8
003A5505 2019-04-15 17:19:13 21.3 19 22.9
003A5505 2019-04-15 16:09:42 21.4 19 23.2
003A5505 2019-04-15 15:34:55 21.5 18 23.2
003A5505 2019-04-15 14:25:25 21.7 18 23.4
003A5505 2019-04-15 13:50:42 21.9 18 23.5
003A5505 2019-04-15 12:41:06 22.2 18 23.6
003A5505 2019-04-15 12:06:20 22.3 16 23.7
003A5505 2019-04-15 11:31:32 22.1 16 23.7
003A5505 2019-04-15 10:56:46 22.1 16 23.7
003A5505 2019-04-15 10:22:00 22.1 16 23.8
003A5505 2019-04-15 09:47:14 22.1 17 23.1
003A5505 2019-04-15 09:12:28 21.9 17 23.2
003A5505 2019-04-15 08:37:43 21.9 17 23.3
003A5505 2019-04-15 08:02:58 21.9 17 23.3
003A5505 2019-04-15 07:28:12 21.7 17 23.3
003A5505 2019-04-15 06:53:27 21.8 17 23.9
003A5505 2019-04-15 06:18:41 21.7 17 23.3
003A5505 2019-04-15 05:43:56 21.7 17 23.3
003A5505 2019-04-15 05:09:10 21.7 17 23.3
003A5505 2019-04-15 04:34:24 21.7 17 23.2
003A5505 2019-04-15 03:59:40 21.7 17 23.2
003A5505 2019-04-15 03:24:54 21.7 17 23.3
003A5505 2019-04-15 02:50:09 21.7 17 23.3
003A5505 2019-04-15 02:15:24 21.7 17 23.3
003A5505 2019-04-15 01:40:38 21.7 17 23.4
003A5505 2019-04-15 01:05:54 21.7 17 23.3
003A5505 2019-04-15 00:31:08 21.7 17 23.2
003A5505 2019-04-14 23:56:23 21.8 17 23.2
003A5505 2019-04-14 23:21:39 21.7 17 23.3
003A5505 2019-04-14 22:46:53 21.8 17 23.9
003A5505 2019-04-14 22:12:08 21.9 18 24
003A5505 2019-04-14 21:37:24 21.9 18 24
003A5505 2019-04-14 21:02:37 21.9 18 23.9
003A5505 2019-04-14 20:27:50 21.9 18 23.9
003A5505 2019-04-14 19:53:05 21.9 18 23.9
003A5505 2019-04-14 19:18:19 21.9 18 23.9
003A5505 2019-04-14 18:43:33 21.9 18 23.9
003A5505 2019-04-14 18:08:47 21.9 18 23.8
003A5505 2019-04-14 17:34:02 21.9 18 23.9
003A5505 2019-04-14 16:59:16 21.9 18 23.9
003A5505 2019-04-14 16:24:31 21.8 18 23.3
003A5505 2019-04-14 15:49:46 21.9 18 23.3
003A5505 2019-04-14 15:15:01 21.8 18 23.3
003A5505 2019-04-14 14:40:15 21.9 18 23.3
003A5505 2019-04-14 14:05:29 21.8 18 23.3
003A5505 2019-04-14 13:30:43 21.9 18 23.5
003A5505 2019-04-14 12:55:58 21.9 18 23.4
003A5505 2019-04-14 12:21:12 21.9 18 23.4
003A5505 2019-04-14 11:46:26 21.9 18 24
003A5505 2019-04-14 11:11:41 21.9 18 24
003A5505 2019-04-14 10:36:55 21.9 18 24.5
003A5505 2019-04-14 10:02:09 21.9 18 24.5
003A5505 2019-04-14 09:27:22 21.8 18 24.6
003A5505 2019-04-14 08:52:35 21.8 18 24.5
003A5505 2019-04-14 08:17:48 21.8 18 24
003A5505 2019-04-14 07:43:02 21.8 18 24
003A5505 2019-04-14 07:08:16 21.7 18 23.9
003A5505 2019-04-14 06:33:30 21.8 18 23.9
003A5505 2019-04-14 05:58:44 21.8 18 23.9
003A5505 2019-04-14 05:23:58 21.8 18 23.9
003A5505 2019-04-14 04:49:13 21.9 18 23.9
003A5505 2019-04-14 04:14:26 21.8 18 23.9
003A5505 2019-04-14 03:39:41 21.9 18 23.9
003A5505 2019-04-14 03:04:54 21.9 18 23.7
003A5505 2019-04-14 02:30:07 21.9 18 23.7
003A5505 2019-04-14 01:55:20 21.9 18 23.7
003A5505 2019-04-14 01:20:34 21.9 18 23.7
003A5505 2019-04-14 00:45:46 21.9 18 23.7
003A5505 2019-04-14 00:11:00 21.9 18 23.7
003A5505 2019-04-13 23:36:12 21.9 18 23.7
003A5505 2019-04-13 23:01:24 22 18 23.7
003A5505 2019-04-13 22:26:36 21.9 17 23.7
003A5505 2019-04-13 21:51:49 22 17 23.7
003A5505 2019-04-13 21:17:02 22 17 23.1
003A5505 2019-04-13 20:42:16 22.1 17 23.1
003A5505 2019-04-13 20:07:28 22.1 17 22.4
003A5505 2019-04-13 19:32:42 22.1 17 22.5
003A5505 2019-04-13 18:57:55 22.1 18 22.4
003A5505 2019-04-13 18:23:09 22.1 18 22.4
003A5505 2019-04-13 17:48:23 22.1 18 22.3
003A5505 2019-04-13 17:13:35 22.1 18 22.4
003A5505 2019-04-13 16:38:47 22.1 18 22.4
003A5505 2019-04-13 16:04:00 22.1 18 22.6
003A5505 2019-04-13 15:29:13 22.3 18 22.6
003A5505 2019-04-13 14:54:26 22.2 18 22.5
003A5505 2019-04-13 14:19:39 22.3 18 22.6
003A5505 2019-04-13 13:44:52 22.3 18 22.7
003A5505 2019-04-13 13:10:05 22.4 18 22.7
003A5505 2019-04-13 12:35:19 22.4 18 22.8
003A5505 2019-04-13 12:00:32 22.3 18 22.8
003A5505 2019-04-13 11:25:44 22.3 18 22.7
003A5505 2019-04-13 10:50:57 22.3 18 22.8
003A5505 2019-04-13 10:16:09 22.3 18 23.5
003A5505 2019-04-13 09:41:23 22.3 18 23.5
003A5505 2019-04-13 09:06:36 22.3 18 23.5
003A5505 2019-04-13 08:31:50 22.3 17 23.5
003A5505 2019-04-13 07:57:03 22.3 18 23.6
003A5505 2019-04-13 07:22:16 22.2 17 23.6
003A5505 2019-04-13 06:47:30 22.2 17 23.5
003A5505 2019-04-13 06:12:43 22.2 17 23.5
003A5505 2019-04-13 05:37:56 22.2 18 23.4
003A5505 2019-04-13 05:03:10 22.3 17 24
003A5505 2019-04-13 04:28:22 22.3 17 24.5
003A5505 2019-04-13 03:53:35 22.3 17 24.5
003A5505 2019-04-13 03:18:47 22.3 18 24.4
003A5505 2019-04-13 02:44:00 22.3 18 24.4
003A5505 2019-04-13 02:09:13 22.4 18 24.5
003A5505 2019-04-13 01:34:26 22.4 18 24.5
003A5505 2019-04-13 00:59:39 22.4 18 24.6
003A5505 2019-04-13 00:24:51 22.5 18 24.8
003A5505 2019-04-12 23:50:04 22.5 18 24.8
003A5505 2019-04-12 23:15:17 22.5 18 24.8
003A5505 2019-04-12 22:40:28 22.6 19 24.9
003A5505 2019-04-12 22:05:41 22.6 19 25
003A5505 2019-04-12 21:30:54 22.8 19 25.2
003A5505 2019-04-12 20:56:07 22.8 19 25.4
003A5505 2019-04-12 20:21:19 22.7 18 25.5
003A5505 2019-04-12 19:46:31 22.7 18 24.8
003A5505 2019-04-12 19:11:43 22.8 18 24.9
003A5505 2019-04-12 18:36:56 22.8 17 25
003A5505 2019-04-12 18:02:08 23 17 25.2
003A5505 2019-04-12 17:27:19 23 17 25.3
003A5505 2019-04-12 16:52:29 23 18 25.7
003A5505 2019-04-12 16:17:42 23 18 26.3
003A5505 2019-04-12 15:42:54 22.8 19 26.7
003A5505 2019-04-12 15:08:06 22.6 18 27.3
003A5505 2019-04-12 14:33:19 22.3 18 25.8
003A5505 2019-04-12 13:58:32 21.9 19 18.7
003A5505 2019-04-12 13:23:44 21.3 21 14.6